Location: Northam
(31.6525°S, 116.6655°E)
Time: 23:06:25
(UTC+08:00)

Envisat - Pass Details

Date: 21 May 2021
Orbit: 764 x 766 km, 98.1° (Epoch: 14 June)

Event Time Altitude Azimuth Distance (km) Brightness Sun altitude
Rises 18:14:40 0° 179° (S) 3,264 6.1 -11.4°
Reaches altitude 10° 18:17:08 10° 187° (S) 2,330 5.4 -11.9°
Maximum altitude 18:21:47 36° 252° (WSW) 1,215 4.6 -12.9°
Drops below altitude 10° 18:26:24 10° 317° (NW) 2,304 6.4 -13.8°
Sets 18:28:51 0° 325° (NW) 3,223 7.1 -14.3°
